| time (UTC) | temp F | wind direction | speed MPH | gust MPH | rain 1hr in | rain 24hr in | rain mn in | humidity % | barometer mb |
| 20260508122420 | 76 | 295 | 0.0 | 0.0 | 0.00 | 0.01 | 0.01 | 76 | 1018.0 |
| 20260508121917 | 77 | 288 | 1.0 | 1.0 | 0.00 | 0.01 | 0.01 | 73 | 1017.9 |
| 20260508121415 | 74 | 287 | 0.0 | 0.0 | 0.00 | 0.01 | 0.01 | 77 | 1018.1 |
| 20260508120913 | 75 | 307 | 0.0 | 0.0 | 0.00 | 0.01 | 0.01 | 76 | 1018.0 |
| 20260508120410 | 75 | 307 | 0.0 | 0.0 | 0.00 | 0.01 | 0.01 | 74 | 1017.9 |
| 20260508115908 | 75 | 308 | 0.0 | 0.0 | 0.00 | 0.01 | 0.01 | 71 | 1018.2 |
| 20260508115406 | 75 | 308 | 0.0 | 0.0 | 0.00 | 0.01 | 0.01 | 73 | 1018.1 |
| 20260508114902 | 74 | 308 | 0.0 | 0.0 | 0.00 | 0.01 | 0.01 | 72 | 1017.9 |
| 20260508114359 | 73 | 308 | 0.0 | 0.0 | 0.00 | 0.01 | 0.01 | 82 | 1018.1 |
| 20260508113855 | 72 | 308 | 0.0 | 0.0 | 0.00 | 0.01 | 0.01 | 82 | 1018.0 |
| 20260508113353 | 73 | 308 | 0.0 | 0.0 | 0.00 | 0.01 | 0.01 | 82 | 1018.2 |
| 20260508112850 | 70 | 308 | 0.0 | 0.0 | 0.00 | 0.01 | 0.01 | 86 | 1017.9 |
| 20260508112347 | 69 | 308 | 0.0 | 0.0 | 0.00 | 0.01 | 0.01 | 87 | 1017.8 |
| 20260508111843 | 68 | 309 | 0.0 | 0.0 | 0.00 | 0.01 | 0.01 | 89 | 1017.8 |
| 20260508111340 | 67 | 310 | 0.0 | 0.0 | 0.00 | 0.01 | 0.01 | 91 | 1017.8 |
| 20260508110838 | 66 | 310 | 0.0 | 0.0 | 0.00 | 0.01 | 0.01 | 91 | 1017.7 |
| 20260508110335 | 65 | 310 | 0.0 | 0.0 | 0.00 | 0.01 | 0.01 | 94 | 1017.7 |
| 20260508105835 | 64 | 311 | 0.0 | 0.0 | 0.07 | 0.01 | 0.01 | 94 | 1017.8 |
| 20260508105332 | 63 | 311 | 0.0 | 0.0 | 0.07 | 0.01 | 0.01 | 97 | 1017.9 |
| 20260508104829 | 62 | 313 | 0.0 | 1.0 | 0.00 | 0.00 | 0.00 | 97 | 1017.9 |
| 20260508104326 | 62 | 309 | 0.0 | 0.0 | 0.00 | 0.00 | 0.00 | 98 | 1017.9 |
| 20260508103823 | 61 | 310 | 1.0 | 1.0 | 0.00 | 0.00 | 0.00 | 98 | 1017.7 |
| 20260508103320 | 61 | 309 | 0.0 | 1.0 | 0.00 | 0.00 | 0.00 | 98 | 1017.6 |
| 20260508102818 | 61 | 311 | 0.0 | 0.0 | 0.00 | 0.00 | 0.00 | 98 | 1017.5 |
| 20260508102315 | 61 | 311 | 0.0 | 0.0 | 0.00 | 0.00 | 0.00 | 98 | 1017.5 |
| 20260508101812 | 60 | 313 | 0.0 | 0.0 | 0.00 | 0.00 | 0.00 | 99 | 1017.6 |
| 20260508101310 | 60 | 314 | 0.0 | 0.0 | 0.00 | 0.00 | 0.00 | 99 | 1017.4 |
| 20260508100807 | 60 | 313 | 0.0 | 1.0 | 0.00 | 0.00 | 0.00 | 99 | 1017.5 |
| 20260508100306 | 60 | 313 | 1.0 | 1.0 | 0.00 | 0.00 | 0.00 | 99 | 1017.4 |
| 20260508095801 | 61 | 312 | 0.0 | 0.0 | 0.00 | 0.00 | 0.00 | 99 | 1017.4 |
| 20260508095259 | 61 | 314 | 0.0 | 0.0 | 0.00 | 0.00 | 0.00 | 99 | 1017.4 |
| 20260508094755 | 61 | 308 | 0.0 | 0.0 | 0.00 | 0.00 | 0.00 | 99 | 1017.2 |
| 20260508094253 | 61 | 313 | 0.0 | 0.0 | 0.00 | 0.00 | 0.00 | 99 | 1017.1 |
| 20260508093749 | 61 | 313 | 0.0 | 0.0 | 0.00 | 0.00 | 0.00 | 99 | 1017.2 |
| 20260508093247 | 61 | 314 | 0.0 | 0.0 | 0.00 | 0.00 | 0.00 | 99 | 1017.2 |
| 20260508092744 | 61 | 314 | 0.0 | 0.0 | 0.00 | 0.00 | 0.00 | 99 | 1017.1 |
| 20260508092242 | 61 | 310 | 1.0 | 1.0 | 0.00 | 0.00 | 0.00 | 99 | 1017.2 |
| 20260508091740 | 61 | 308 | 1.0 | 1.0 | 0.00 | 0.00 | 0.00 | 99 | 1017.2 |
| 20260508091236 | 61 | 309 | 0.0 | 0.0 | 0.00 | 0.00 | 0.00 | 99 | 1017.2 |
| 20260508090734 | 61 | 314 | 0.0 | 0.0 | 0.00 | 0.00 | 0.00 | 99 | 1017.1 |
| 20260508090232 | 62 | 312 | 0.0 | 0.0 | 0.00 | 0.00 | 0.00 | 99 | 1017.1 |
| 20260508085727 | 62 | 313 | 0.0 | 0.0 | 0.00 | 0.00 | 0.00 | 99 | 1017.0 |
| 20260508085225 | 62 | 316 | 0.0 | 0.0 | 0.00 | 0.00 | 0.00 | 99 | 1017.3 |
| 20260508084720 | 62 | 313 | 0.0 | 0.0 | 0.00 | 0.00 | 0.00 | 99 | 1017.0 |
| 20260508084218 | 62 | 313 | 0.0 | 0.0 | 0.00 | 0.00 | 0.00 | 99 | 1017.1 |
| 20260508083716 | 62 | 315 | 0.0 | 0.0 | 0.00 | 0.00 | 0.00 | 99 | 1017.2 |
| 20260508083213 | 62 | 314 | 0.0 | 0.0 | 0.00 | 0.00 | 0.00 | 99 | 1016.7 |
| 20260508082708 | 62 | 315 | 0.0 | 0.0 | 0.00 | 0.00 | 0.00 | 99 | 1016.7 |
| 20260508082206 | 62 | 316 | 0.0 | 0.0 | 0.00 | 0.00 | 0.00 | 99 | 1017.0 |
| 20260508081703 | 62 | 315 | 0.0 | 0.0 | 0.00 | 0.00 | 0.00 | 99 | 1017.0 |
| 20260508081159 | 62 | 316 | 0.0 | 0.0 | 0.00 | 0.00 | 0.00 | 99 | 1017.2 |
| 20260508080657 | 62 | 315 | 0.0 | 0.0 | 0.00 | 0.00 | 0.00 | 99 | 1016.9 |
| 20260508080155 | 62 | 315 | 0.0 | 0.0 | 0.00 | 0.00 | 0.00 | 99 | 1016.9 |
| 20260508075651 | 62 | 312 | 0.0 | 0.0 | 0.00 | 0.00 | 0.00 | 99 | 1016.9 |
| 20260508075148 | 62 | 314 | 0.0 | 0.0 | 0.00 | 0.00 | 0.00 | 99 | 1016.9 |
| 20260508074646 | 62 | 313 | 0.0 | 0.0 | 0.00 | 0.00 | 0.00 | 99 | 1016.7 |
| 20260508074143 | 63 | 314 | 0.0 | 0.0 | 0.00 | 0.00 | 0.00 | 99 | 1016.7 |
| 20260508073639 | 63 | 315 | 0.0 | 0.0 | 0.00 | 0.00 | 0.00 | 99 | 1016.7 |
| 20260508073137 | 63 | 316 | 0.0 | 0.0 | 0.00 | 0.00 | 0.00 | 99 | 1016.9 |
| 20260508072633 | 63 | 314 | 0.0 | 0.0 | 0.00 | 0.00 | 0.00 | 99 | 1017.0 |
| 20260508072130 | 63 | 313 | 0.0 | 0.0 | 0.00 | 0.00 | 0.00 | 99 | 1016.9 |
| 20260508071628 | 63 | 315 | 0.0 | 0.0 | 0.00 | 0.00 | 0.00 | 99 | 1016.7 |
| 20260508071126 | 63 | 318 | 0.0 | 0.0 | 0.00 | 0.00 | 0.00 | 99 | 1017.0 |
| 20260508070623 | 63 | 314 | 0.0 | 0.0 | 0.00 | 0.00 | 0.00 | 99 | 1016.9 |
| 20260508070122 | 63 | 314 | 0.0 | 0.0 | 0.00 | 0.00 | 0.00 | 99 | 1017.0 |
| 20260508065618 | 63 | 314 | 0.0 | 0.0 | 0.00 | 0.00 | 0.00 | 99 | 1017.2 |
| 20260508065116 | 63 | 314 | 0.0 | 0.0 | 0.00 | 0.00 | 0.00 | 99 | 1017.1 |
| 20260508064614 | 63 | 314 | 0.0 | 0.0 | 0.00 | 0.00 | 0.00 | 99 | 1017.1 |
| 20260508064111 | 63 | 314 | 0.0 | 0.0 | 0.00 | 0.00 | 0.00 | 99 | 1017.2 |
| 20260508063608 | 63 | 314 | 0.0 | 0.0 | 0.00 | 0.00 | 0.00 | 99 | 1017.2 |
| 20260508063106 | 64 | 314 | 0.0 | 0.0 | 0.00 | 0.00 | 0.00 | 99 | 1017.1 |
| 20260508062558 | 64 | 314 | 0.0 | 0.0 | 0.00 | 0.00 | 0.00 | 99 | 1017.2 |
| 20260508062054 | 64 | 314 | 0.0 | 0.0 | 0.00 | 0.00 | 0.00 | 99 | 1017.3 |
| 20260508061552 | 64 | 314 | 0.0 | 0.0 | 0.00 | 0.00 | 0.00 | 99 | 1017.3 |
| 20260508061049 | 64 | 314 | 0.0 | 0.0 | 0.00 | 0.00 | 0.00 | 99 | 1017.4 |
| 20260508060546 | 64 | 314 | 0.0 | 0.0 | 0.00 | 0.00 | 0.00 | 99 | 1017.5 |
| 20260508060043 | 64 | 314 | 0.0 | 0.0 | 0.00 | 0.00 | 0.00 | 99 | 1017.5 |
| 20260508055539 | 64 | 314 | 0.0 | 0.0 | 0.00 | 0.00 | 0.00 | 99 | 1017.3 |
| 20260508055036 | 64 | 314 | 0.0 | 0.0 | 0.00 | 0.00 | 0.00 | 99 | 1017.8 |
| 20260508054532 | 64 | 314 | 0.0 | 0.0 | 0.00 | 0.00 | 0.00 | 99 | 1017.7 |
| 20260508054030 | 64 | 314 | 0.0 | 0.0 | 0.00 | 0.00 | 0.00 | 99 | 1018.0 |
| 20260508053526 | 64 | 315 | 0.0 | 0.0 | 0.00 | 0.00 | 0.00 | 99 | 1017.9 |
| 20260508053025 | 65 | 315 | 0.0 | 0.0 | 0.00 | 0.00 | 0.00 | 99 | 1018.1 |
| 20260508052521 | 65 | 316 | 0.0 | 0.0 | 0.00 | 0.00 | 0.00 | 99 | 1018.0 |
| 20260508052018 | 65 | 316 | 0.0 | 0.0 | 0.00 | 0.00 | 0.00 | 99 | 1018.0 |
| 20260508051515 | 65 | 317 | 0.0 | 0.0 | 0.00 | 0.00 | 0.00 | 99 | 1018.1 |
| 20260508051009 | 65 | 317 | 0.0 | 0.0 | 0.00 | 0.00 | 0.00 | 99 | 1017.9 |
| 20260508050501 | 65 | 320 | 0.0 | 0.0 | 0.00 | 0.00 | 0.00 | 99 | 1018.1 |
| 20260508045957 | 66 | 313 | 0.0 | 0.0 | 0.00 | 0.00 | 0.00 | 99 | 1018.2 |
| 20260508045454 | 66 | 313 | 0.0 | 0.0 | 0.00 | 0.00 | 0.00 | 99 | 1018.3 |
| 20260508044952 | 66 | 313 | 0.0 | 0.0 | 0.00 | 0.00 | 0.00 | 99 | 1018.4 |
| 20260508044449 | 66 | 313 | 0.0 | 0.0 | 0.00 | 0.00 | 0.00 | 99 | 1018.5 |
| 20260508043944 | 67 | 313 | 0.0 | 0.0 | 0.00 | 0.00 | 0.00 | 99 | 1018.4 |
| 20260508043442 | 67 | 313 | 0.0 | 0.0 | 0.00 | 0.00 | 0.00 | 99 | 1018.6 |
| 20260508042937 | 67 | 313 | 0.0 | 0.0 | 0.00 | 0.00 | 0.00 | 99 | 1018.5 |
| 20260508042436 | 67 | 313 | 0.0 | 0.0 | 0.00 | 0.00 | 0.00 | 99 | 1018.6 |
| 20260508041932 | 68 | 313 | 0.0 | 0.0 | 0.00 | 0.00 | 0.00 | 99 | 1018.9 |
| 20260508041429 | 68 | 313 | 0.0 | 0.0 | 0.00 | 0.00 | 0.00 | 99 | 1018.9 |
| 20260508040926 | 68 | 313 | 0.0 | 0.0 | 0.00 | 0.00 | 0.00 | 99 | 1018.6 |
| 20260508040423 | 68 | 313 | 0.0 | 0.0 | 0.00 | 0.00 | 0.00 | 99 | 1018.9 |
| 20260508035921 | 68 | 313 | 0.0 | 0.0 | 0.00 | 0.17 | 0.17 | 99 | 1018.7 |
| 20260508035417 | 68 | 313 | 0.0 | 0.0 | 0.00 | 0.17 | 0.17 | 99 | 1019.0 |
| 20260508034914 | 68 | 313 | 0.0 | 0.0 | 0.00 | 0.17 | 0.17 | 99 | 1018.9 |
| 20260508034412 | 68 | 315 | 0.0 | 0.0 | 0.00 | 0.17 | 0.17 | 99 | 1018.7 |
| 20260508033908 | 68 | 315 | 0.0 | 0.0 | 0.00 | 0.17 | 0.17 | 99 | 1018.7 |
| 20260508033406 | 68 | 315 | 0.0 | 1.0 | 0.00 | 0.17 | 0.17 | 99 | 1019.1 |
| 20260508032903 | 68 | 317 | 0.0 | 0.0 | 0.00 | 0.17 | 0.17 | 99 | 1018.7 |
| 20260508032401 | 68 | 309 | 0.0 | 0.0 | 0.00 | 0.17 | 0.17 | 99 | 1018.6 |
| 20260508031857 | 68 | 307 | 0.0 | 0.0 | 0.00 | 0.17 | 0.17 | 99 | 1018.9 |
| 20260508031354 | 68 | 307 | 0.0 | 0.0 | 0.00 | 0.17 | 0.17 | 99 | 1019.0 |
| 20260508030850 | 68 | 307 | 0.0 | 0.0 | 0.00 | 0.17 | 0.17 | 99 | 1018.9 |
| 20260508030348 | 68 | 307 | 0.0 | 0.0 | 0.00 | 0.17 | 0.17 | 99 | 1019.1 |
| 20260508025844 | 68 | 307 | 0.0 | 0.0 | 0.00 | 0.17 | 0.17 | 99 | 1019.1 |
| 20260508025341 | 68 | 307 | 0.0 | 0.0 | 0.00 | 0.17 | 0.17 | 99 | 1019.0 |
| 20260508024838 | 68 | 307 | 0.0 | 0.0 | 0.00 | 0.17 | 0.17 | 99 | 1019.3 |
| 20260508024335 | 68 | 307 | 0.0 | 0.0 | 0.00 | 0.17 | 0.17 | 99 | 1019.2 |
| 20260508023832 | 69 | 307 | 0.0 | 0.0 | 0.00 | 0.17 | 0.17 | 99 | 1019.1 |
| 20260508023328 | 68 | 307 | 0.0 | 0.0 | 0.00 | 0.17 | 0.17 | 99 | 1019.2 |
| 20260508022824 | 68 | 307 | 0.0 | 0.0 | 0.00 | 0.17 | 0.17 | 99 | 1019.3 |
| 20260508022315 | 69 | 307 | 0.0 | 0.0 | 0.00 | 0.17 | 0.17 | 99 | 1018.7 |
| 20260508021812 | 69 | 307 | 0.0 | 0.0 | 0.00 | 0.17 | 0.17 | 99 | 1019.3 |
| 20260508021308 | 69 | 307 | 0.0 | 0.0 | 0.00 | 0.17 | 0.17 | 99 | 1018.9 |
| 20260508020804 | 69 | 307 | 0.0 | 0.0 | 0.00 | 0.17 | 0.17 | 99 | 1019.1 |
| 20260508020302 | 69 | 307 | 0.0 | 0.0 | 0.00 | 0.17 | 0.17 | 99 | 1019.2 |
| 20260508015759 | 69 | 307 | 0.0 | 0.0 | 0.00 | 0.17 | 0.17 | 99 | 1019.3 |
| 20260508015256 | 69 | 307 | 0.0 | 0.0 | 0.00 | 0.17 | 0.17 | 99 | 1019.2 |
| 20260508014753 | 69 | 307 | 0.0 | 0.0 | 0.00 | 0.17 | 0.17 | 99 | 1019.0 |
| 20260508014250 | 69 | 307 | 0.0 | 0.0 | 0.00 | 0.17 | 0.17 | 99 | 1019.2 |
| 20260508013746 | 69 | 307 | 0.0 | 0.0 | 0.00 | 0.17 | 0.17 | 99 | 1019.2 |
| 20260508013242 | 69 | 307 | 0.0 | 0.0 | 0.07 | 0.17 | 0.17 | 99 | 1019.0 |
| 20260508012740 | 69 | 307 | 0.0 | 0.0 | 0.07 | 0.17 | 0.17 | 99 | 1018.9 |
| 20260508012237 | 69 | 307 | 0.0 | 0.0 | 0.00 | 0.16 | 0.16 | 99 | 1018.9 |
| 20260508011735 | 69 | 306 | 0.0 | 1.0 | 0.00 | 0.16 | 0.16 | 99 | 1018.9 |
| 20260508011232 | 69 | 307 | 0.0 | 1.0 | 0.00 | 0.16 | 0.16 | 99 | 1019.0 |
| 20260508010729 | 69 | 4 | 1.0 | 1.0 | 0.00 | 0.16 | 0.16 | 99 | 1018.6 |
| 20260508010227 | 69 | 304 | 0.0 | 0.0 | 0.00 | 0.16 | 0.16 | 99 | 1018.9 |
| 20260508005724 | 69 | 311 | 0.0 | 0.0 | 0.05 | 0.16 | 0.16 | 99 | 1019.0 |
| 20260508005220 | 69 | 300 | 0.0 | 0.0 | 0.24 | 0.16 | 0.16 | 99 | 1018.7 |
| 20260508004716 | 69 | 302 | 0.0 | 0.0 | 0.19 | 0.15 | 0.15 | 99 | 1018.6 |
| 20260508004212 | 69 | 289 | 1.0 | 1.0 | 0.07 | 0.13 | 0.13 | 99 | 1018.6 |
| 20260508003709 | 69 | 290 | 1.0 | 1.0 | 0.05 | 0.12 | 0.12 | 99 | 1018.5 |
| 20260508003207 | 69 | 324 | 1.0 | 1.0 | 0.12 | 0.12 | 0.12 | 99 | 1018.5 |
| 20260508002703 | 69 | 276 | 0.0 | 0.0 | 0.12 | 0.11 | 0.11 | 99 | 1018.6 |
| 20260508002201 | 69 | 276 | 0.0 | 0.0 | 0.24 | 0.10 | 0.10 | 99 | 1018.3 |
| 20260508001656 | 69 | 309 | 1.0 | 1.0 | 0.38 | 0.09 | 0.09 | 99 | 1018.3 |
| 20260508001152 | 70 | 24 | 0.0 | 1.0 | 0.19 | 0.06 | 0.06 | 99 | 1018.4 |
| 20260508000648 | 70 | 277 | 0.0 | 1.0 | 0.07 | 0.04 | 0.04 | 99 | 1018.2 |
| 20260508000145 | 70 | 279 | 0.0 | 1.0 | 0.00 | 0.03 | 0.03 | 99 | 1018.4 |
| 20260507235642 | 70 | 269 | 1.0 | 1.0 | 0.00 | 0.03 | 0.03 | 99 | 1018.3 |
| 20260507235139 | 70 | 287 | 1.0 | 1.0 | 0.00 | 0.03 | 0.03 | 99 | 1018.1 |
| 20260507234636 | 70 | 288 | 1.0 | 1.0 | 0.00 | 0.03 | 0.03 | 99 | 1018.1 |
| 20260507234132 | 70 | 258 | 1.0 | 1.0 | 0.00 | 0.03 | 0.03 | 98 | 1018.1 |
| 20260507233629 | 70 | 268 | 1.0 | 1.0 | 0.00 | 0.03 | 0.03 | 98 | 1018.0 |
| 20260507233128 | 70 | 284 | 0.0 | 0.0 | 0.00 | 0.03 | 0.03 | 98 | 1018.0 |
| 20260507232625 | 70 | 283 | 0.0 | 0.0 | 0.00 | 0.03 | 0.03 | 98 | 1018.0 |
| 20260507232121 | 70 | 282 | 1.0 | 1.0 | 0.00 | 0.03 | 0.03 | 98 | 1017.9 |
| 20260507231618 | 70 | 291 | 1.0 | 1.0 | 0.00 | 0.03 | 0.03 | 98 | 1017.8 |
| 20260507231115 | 71 | 279 | 1.0 | 2.0 | 0.00 | 0.03 | 0.03 | 98 | 1017.8 |
| 20260507230611 | 71 | 273 | 0.0 | 1.0 | 0.00 | 0.03 | 0.03 | 98 | 1017.7 |
| 20260507230108 | 70 | 271 | 1.0 | 1.0 | 0.00 | 0.03 | 0.03 | 97 | 1017.6 |
| 20260507225603 | 71 | 257 | 1.0 | 1.0 | 0.00 | 0.03 | 0.03 | 97 | 1017.6 |
| 20260507225100 | 71 | 269 | 0.0 | 0.0 | 0.00 | 0.03 | 0.03 | 96 | 1017.8 |
| 20260507224555 | 71 | 267 | 2.0 | 2.0 | 0.05 | 0.03 | 0.03 | 96 | 1017.6 |
| 20260507224052 | 72 | 275 | 0.0 | 1.0 | 0.12 | 0.03 | 0.03 | 95 | 1017.3 |
| 20260507223548 | 72 | 286 | 1.0 | 1.0 | 0.07 | 0.02 | 0.02 | 94 | 1017.3 |
| 20260507223046 | 73 | 280 | 1.0 | 1.0 | 0.07 | 0.02 | 0.02 | 94 | 1017.5 |
| 20260507222543 | 73 | 287 | 1.0 | 1.0 | 0.00 | 0.01 | 0.01 | 93 | 1017.4 |
| 20260507222039 | 73 | 298 | 0.0 | 0.0 | 0.00 | 0.01 | 0.01 | 92 | 1017.4 |
| 20260507221535 | 73 | 297 | 0.0 | 1.0 | 0.00 | 0.01 | 0.01 | 90 | 1017.2 |
| 20260507221032 | 73 | 96 | 2.0 | 2.0 | 0.00 | 0.01 | 0.01 | 90 | 1017.4 |
| 20260507220529 | 74 | 345 | 0.0 | 1.0 | 0.00 | 0.01 | 0.01 | 89 | 1017.2 |
| 20260507220027 | 75 | 254 | 0.0 | 0.0 | 0.00 | 0.01 | 0.01 | 90 | 1017.2 |
| 20260507215523 | 74 | 269 | 0.0 | 1.0 | 0.00 | 0.01 | 0.01 | 90 | 1017.0 |
| 20260507215021 | 75 | 271 | 0.0 | 1.0 | 0.00 | 0.01 | 0.01 | 89 | 1017.4 |
| 20260507214518 | 75 | 287 | 0.0 | 1.0 | 0.00 | 0.01 | 0.01 | 89 | 1017.2 |
| 20260507214014 | 75 | 266 | 1.0 | 1.0 | 0.00 | 0.01 | 0.01 | 88 | 1017.2 |
| 20260507213510 | 76 | 281 | 1.0 | 1.0 | 0.00 | 0.01 | 0.01 | 87 | 1016.9 |
| 20260507213007 | 76 | 302 | 0.0 | 0.0 | 0.00 | 0.01 | 0.01 | 81 | 1016.9 |
| 20260507212503 | 76 | 301 | 3.0 | 5.0 | 0.00 | 0.01 | 0.01 | 82 | 1016.9 |
| 20260507212000 | 77 | 288 | 1.0 | 1.0 | 0.00 | 0.01 | 0.01 | 84 | 1016.9 |
| 20260507211456 | 77 | 285 | 1.0 | 2.0 | 0.00 | 0.01 | 0.01 | 84 | 1016.9 |
| 20260507210953 | 77 | 269 | 1.0 | 1.0 | 0.00 | 0.01 | 0.01 | 80 | 1017.0 |
| 20260507210450 | 76 | 288 | 0.0 | 1.0 | 0.00 | 0.01 | 0.01 | 81 | 1016.7 |
| 20260507205947 | 76 | 309 | 0.0 | 0.0 | 0.00 | 0.01 | 0.01 | 82 | 1016.6 |
| 20260507205444 | 76 | 289 | 1.0 | 1.0 | 0.00 | 0.01 | 0.01 | 82 | 1017.0 |
| 20260507204940 | 76 | 297 | 1.0 | 1.0 | 0.00 | 0.01 | 0.01 | 83 | 1017.0 |
| 20260507204436 | 76 | 37 | 2.0 | 2.0 | 0.00 | 0.01 | 0.01 | 83 | 1016.6 |
| 20260507203934 | 76 | 349 | 1.0 | 1.0 | 0.00 | 0.01 | 0.01 | 83 | 1016.7 |
| 20260507203432 | 76 | 289 | 0.0 | 2.0 | 0.00 | 0.01 | 0.01 | 82 | 1017.0 |
| 20260507202928 | 78 | 19 | 1.0 | 1.0 | 0.00 | 0.01 | 0.01 | 81 | 1017.1 |
| 20260507202425 | 79 | 332 | 1.0 | 2.0 | 0.00 | 0.01 | 0.01 | 79 | 1017.0 |
| 20260507201920 | 79 | 87 | 3.0 | 3.0 | 0.00 | 0.01 | 0.01 | 79 | 1016.6 |
| 20260507201416 | 79 | 275 | 1.0 | 2.0 | 0.00 | 0.01 | 0.01 | 79 | 1016.6 |
| 20260507200913 | 77 | 18 | 1.0 | 1.0 | 0.00 | 0.01 | 0.01 | 82 | 1016.5 |
| 20260507200408 | 77 | 315 | 2.0 | 2.0 | 0.00 | 0.01 | 0.01 | 82 | 1017.0 |
| 20260507195904 | 76 | 302 | 1.0 | 1.0 | 0.00 | 0.01 | 0.01 | 83 | 1017.1 |
| 20260507195402 | 76 | 245 | 1.0 | 1.0 | 0.00 | 0.01 | 0.01 | 84 | 1017.3 |
| 20260507194859 | 77 | 26 | 2.0 | 2.0 | 0.00 | 0.01 | 0.01 | 83 | 1017.4 |
| 20260507194355 | 79 | 80 | 2.0 | 2.0 | 0.00 | 0.01 | 0.01 | 80 | 1017.2 |
| 20260507193852 | 77 | 284 | 1.0 | 1.0 | 0.00 | 0.01 | 0.01 | 84 | 1017.3 |
| 20260507193349 | 79 | 93 | 4.0 | 7.0 | 0.00 | 0.01 | 0.01 | 81 | 1017.1 |
| 20260507192845 | 78 | 325 | 1.0 | 1.0 | 0.00 | 0.01 | 0.01 | 82 | 1017.1 |
| 20260507192342 | 77 | 231 | 1.0 | 1.0 | 0.00 | 0.01 | 0.01 | 83 | 1017.2 |
| 20260507191838 | 78 | 294 | 1.0 | 1.0 | 0.00 | 0.01 | 0.01 | 82 | 1017.1 |
| 20260507191334 | 79 | 286 | 2.0 | 3.0 | 0.00 | 0.01 | 0.01 | 79 | 1017.2 |
| 20260507190831 | 79 | 273 | 2.0 | 5.0 | 0.00 | 0.01 | 0.01 | 80 | 1017.6 |
| 20260507190330 | 78 | 230 | 5.0 | 8.0 | 0.00 | 0.01 | 0.01 | 81 | 1017.2 |
| 20260507185828 | 79 | 56 | 3.0 | 5.0 | 0.00 | 0.01 | 0.01 | 81 | 1017.7 |
| 20260507185325 | 79 | 271 | 1.0 | 2.0 | 0.00 | 0.01 | 0.01 | 79 | 1017.5 |
| 20260507184822 | 81 | 13 | 1.0 | 2.0 | 0.00 | 0.01 | 0.01 | 78 | 1017.2 |
| 20260507184320 | 79 | 23 | 2.0 | 2.0 | 0.00 | 0.01 | 0.01 | 79 | 1017.2 |
| 20260507183816 | 78 | 14 | 1.0 | 1.0 | 0.00 | 0.01 | 0.01 | 80 | 1017.6 |
| 20260507183314 | 79 | 280 | 4.0 | 6.0 | 0.00 | 0.01 | 0.01 | 79 | 1017.5 |
| 20260507182811 | 80 | 171 | 2.0 | 2.0 | 0.00 | 0.01 | 0.01 | 77 | 1017.7 |
| 20260507182307 | 79 | 311 | 2.0 | 2.0 | 0.00 | 0.01 | 0.01 | 79 | 1017.6 |
| 20260507181803 | 77 | 302 | 3.0 | 3.0 | 0.00 | 0.01 | 0.01 | 84 | 1017.4 |
| 20260507181259 | 75 | 265 | 3.0 | 6.0 | 0.00 | 0.01 | 0.01 | 88 | 1017.6 |
| 20260507180756 | 75 | 259 | 3.0 | 7.0 | 0.00 | 0.01 | 0.01 | 89 | 1017.7 |
| 20260507180253 | 75 | 258 | 2.0 | 2.0 | 0.05 | 0.01 | 0.01 | 90 | 1017.6 |
| 20260507175748 | 75 | 258 | 2.0 | 2.0 | 0.05 | 0.01 | 0.01 | 89 | 1017.9 |
| 20260507175245 | 76 | 258 | 3.0 | 5.0 | 0.00 | 0.00 | 0.00 | 88 | 1018.0 |
| 20260507174743 | 76 | 258 | 2.0 | 2.0 | 0.00 | 0.00 | 0.00 | 85 | 1018.0 |
| 20260507174241 | 77 | 258 | 1.0 | 2.0 | 0.00 | 0.00 | 0.00 | 82 | 1018.0 |
| 20260507173738 | 77 | 258 | 1.0 | 2.0 | 0.00 | 0.00 | 0.00 | 81 | 1018.1 |
| 20260507173235 | 78 | 258 | 2.0 | 3.0 | 0.00 | 0.00 | 0.00 | 81 | 1017.7 |
| 20260507172731 | 79 | 258 | 3.0 | 5.0 | 0.00 | 0.00 | 0.00 | 80 | 1018.2 |
| 20260507172229 | 79 | 258 | 2.0 | 2.0 | 0.00 | 0.00 | 0.00 | 80 | 1018.1 |
| 20260507171728 | 82 | 258 | 2.0 | 2.0 | 0.00 | 0.00 | 0.00 | 75 | 1018.6 |
| 20260507171226 | 84 | 258 | 3.0 | 5.0 | 0.00 | 0.00 | 0.00 | 74 | 1018.0 |
| 20260507170723 | 84 | 258 | 2.0 | 2.0 | 0.00 | 0.00 | 0.00 | 70 | 1018.1 |
| 20260507170220 | 83 | 258 | 2.0 | 2.0 | 0.00 | 0.00 | 0.00 | 70 | 1018.1 |
| 20260507165715 | 84 | 280 | 1.0 | 2.0 | 0.00 | 0.00 | 0.00 | 71 | 1018.4 |
| 20260507165212 | 84 | 268 | 2.0 | 3.0 | 0.00 | 0.00 | 0.00 | 72 | 1018.6 |
| 20260507164708 | 83 | 291 | 4.0 | 5.0 | 0.00 | 0.00 | 0.00 | 74 | 1018.5 |
| 20260507164205 | 83 | 275 | 2.0 | 3.0 | 0.00 | 0.00 | 0.00 | 71 | 1018.4 |
| 20260507163702 | 85 | 312 | 3.0 | 3.0 | 0.00 | 0.00 | 0.00 | 70 | 1018.7 |
| 20260507163200 | 83 | 350 | 0.0 | 1.0 | 0.00 | 0.00 | 0.00 | 71 | 1018.7 |
| 20260507162655 | 83 | 298 | 2.0 | 2.0 | 0.00 | 0.00 | 0.00 | 74 | 1019.0 |
| 20260507162146 | 82 | 289 | 0.0 | 0.0 | 0.00 | 0.00 | 0.00 | 75 | 1019.1 |
| 20260507161642 | 79 | 258 | 2.0 | 2.0 | 0.00 | 0.00 | 0.00 | 79 | 1018.9 |
| 20260507161139 | 80 | 258 | 3.0 | 6.0 | 0.00 | 0.00 | 0.00 | 77 | 1019.1 |
| 20260507160636 | 82 | 349 | 5.0 | 8.0 | 0.00 | 0.00 | 0.00 | 76 | 1019.3 |
| 20260507160132 | 84 | 342 | 1.0 | 1.0 | 0.00 | 0.00 | 0.00 | 72 | 1019.1 |
| 20260507155627 | 83 | 293 | 1.0 | 2.0 | 0.00 | 0.00 | 0.00 | 72 | 1019.1 |
| 20260507155119 | 81 | 290 | 1.0 | 1.0 | 0.00 | 0.00 | 0.00 | 73 | 1019.3 |
| 20260507154615 | 81 | 55 | 5.0 | 7.0 | 0.00 | 0.00 | 0.00 | 72 | 1019.5 |
| 20260507154113 | 80 | 258 | 4.0 | 6.0 | 0.00 | 0.00 | 0.00 | 77 | 1019.4 |
| 20260507153609 | 82 | 299 | 2.0 | 2.0 | 0.00 | 0.00 | 0.00 | 74 | 1019.3 |
| 20260507153106 | 82 | 259 | 0.0 | 0.0 | 0.00 | 0.00 | 0.00 | 69 | 1019.4 |
| 20260507152602 | 82 | 289 | 3.0 | 3.0 | 0.00 | 0.00 | 0.00 | 68 | 1019.4 |
| 20260507152058 | 85 | 307 | 1.0 | 1.0 | 0.00 | 0.00 | 0.00 | 64 | 1019.4 |
| 20260507151554 | 84 | 310 | 1.0 | 1.0 | 0.00 | 0.00 | 0.00 | 65 | 1019.4 |
| 20260507151051 | 83 | 298 | 1.0 | 2.0 | 0.00 | 0.00 | 0.00 | 66 | 1019.4 |
| 20260507150543 | 83 | 295 | 0.0 | 1.0 | 0.00 | 0.00 | 0.00 | 67 | 1019.4 |
| 20260507150039 | 84 | 296 | 1.0 | 1.0 | 0.00 | 0.00 | 0.00 | 66 | 1019.5 |
| 20260507145534 | 83 | 248 | 2.0 | 3.0 | 0.00 | 0.00 | 0.00 | 70 | 1019.4 |
| 20260507145032 | 81 | 321 | 0.0 | 1.0 | 0.00 | 0.00 | 0.00 | 71 | 1019.6 |
| 20260507144528 | 79 | 283 | 1.0 | 1.0 | 0.00 | 0.00 | 0.00 | 76 | 1019.5 |
| 20260507144026 | 79 | 284 | 0.0 | 0.0 | 0.00 | 0.00 | 0.00 | 72 | 1019.8 |
| 20260507143523 | 79 | 268 | 1.0 | 2.0 | 0.00 | 0.00 | 0.00 | 70 | 1019.9 |
| 20260507143021 | 79 | 263 | 1.0 | 1.0 | 0.00 | 0.00 | 0.00 | 71 | 1019.9 |
| 20260507142515 | 79 | 288 | 0.0 | 0.0 | 0.00 | 0.00 | 0.00 | 73 | 1019.6 |
| 20260507142013 | 78 | 273 | 1.0 | 1.0 | 0.00 | 0.00 | 0.00 | 74 | 1019.5 |
| 20260507141509 | 78 | 244 | 1.0 | 1.0 | 0.00 | 0.00 | 0.00 | 76 | 1019.4 |
| 20260507141007 | 79 | 284 | 1.0 | 1.0 | 0.00 | 0.00 | 0.00 | 75 | 1019.8 |
| 20260507140503 | 79 | 285 | 0.0 | 1.0 | 0.00 | 0.00 | 0.00 | 73 | 1020.0 |
| 20260507140000 | 80 | 270 | 2.0 | 2.0 | 0.00 | 0.00 | 0.00 | 71 | 1019.9 |
| 20260507135457 | 79 | 270 | 1.0 | 1.0 | 0.00 | 0.00 | 0.00 | 74 | 1019.8 |
| 20260507134954 | 78 | 297 | 0.0 | 0.0 | 0.00 | 0.00 | 0.00 | 76 | 1019.9 |
| 20260507134450 | 78 | 290 | 1.0 | 1.0 | 0.00 | 0.00 | 0.00 | 75 | 1019.9 |
| 20260507133946 | 79 | 261 | 1.0 | 1.0 | 0.00 | 0.00 | 0.00 | 74 | 1019.8 |
| 20260507133443 | 78 | 326 | 0.0 | 0.0 | 0.00 | 0.00 | 0.00 | 76 | 1019.7 |
| 20260507132941 | 78 | 326 | 1.0 | 1.0 | 0.00 | 0.00 | 0.00 | 76 | 1019.7 |
| 20260507132437 | 79 | 6 | 1.0 | 1.0 | 0.00 | 0.00 | 0.00 | 75 | 1019.8 |
| 20260507131933 | 78 | 307 | 0.0 | 1.0 | 0.00 | 0.00 | 0.00 | 75 | 1019.7 |
| 20260507131431 | 78 | 263 | 1.0 | 2.0 | 0.00 | 0.00 | 0.00 | 77 | 1019.7 |
| 20260507130928 | 79 | 300 | 1.0 | 1.0 | 0.00 | 0.00 | 0.00 | 74 | 1019.5 |
| 20260507130425 | 79 | 296 | 1.0 | 1.0 | 0.00 | 0.00 | 0.00 | 76 | 1019.5 |
| 20260507125924 | 78 | 291 | 0.0 | 0.0 | 0.00 | 0.00 | 0.00 | 76 | 1019.6 |
| 20260507125421 | 78 | 270 | 0.0 | 1.0 | 0.00 | 0.00 | 0.00 | 77 | 1019.5 |
| 20260507124918 | 78 | 273 | 2.0 | 2.0 | 0.00 | 0.00 | 0.00 | 78 | 1019.5 |
| 20260507124414 | 77 | 279 | 0.0 | 0.0 | 0.00 | 0.00 | 0.00 | 79 | 1019.4 |
| 20260507123913 | 78 | 262 | 1.0 | 1.0 | 0.00 | 0.00 | 0.00 | 77 | 1019.3 |
| 20260507123410 | 78 | 288 | 1.0 | 1.0 | 0.00 | 0.00 | 0.00 | 79 | 1019.4 |
| 20260507122906 | 79 | 251 | 1.0 | 1.0 | 0.00 | 0.00 | 0.00 | 75 | 1019.2 |